Time,TemperatureF,DewpointF,PressureIn,WindDirection,WindDirectionDegrees,WindSpeedMPH,WindSpeedGustMPH,Humidity,HourlyPrecipIn,Conditions,Clouds,dailyrainin,SoftwareType,DateUTC
2013-02-13 00:00:00,30.8,24.7,29.99,SW,234,1.0,1.0,78,0.00,,,0.00,Wunderground v.1.15,2013-02-13 05:00:00,
2013-02-13 00:05:00,30.8,24.4,29.99,SW,235,1.0,8.0,77,0.00,,,0.00,Wunderground v.1.15,2013-02-13 05:05:00,
2013-02-13 00:10:00,30.8,24.1,29.99,WSW,239,1.0,8.0,76,0.00,,,0.00,Wunderground v.1.15,2013-02-13 05:10:00,
2013-02-13 00:15:00,30.8,24.1,30.00,SW,226,2.0,8.0,76,0.00,,,0.00,Wunderground v.1.15,2013-02-13 05:15:00,
2013-02-13 00:20:00,30.8,23.8,30.00,West,269,2.0,8.0,75,0.00,,,0.00,Wunderground v.1.15,2013-02-13 05:20:00,
2013-02-13 00:25:00,30.8,23.8,30.00,SW,219,2.0,8.0,75,0.00,,,0.00,Wunderground v.1.15,2013-02-13 05:25:00,
2013-02-13 00:30:00,30.9,23.6,29.99,West,262,2.0,2.0,74,0.00,,,0.00,Wunderground v.1.15,2013-02-13 05:30:00,
2013-02-13 00:35:00,30.8,23.5,29.99,SW,225,1.0,3.0,74,0.00,,,0.00,Wunderground v.1.15,2013-02-13 05:35:00,
2013-02-13 00:40:00,30.8,23.5,29.99,SW,224,2.0,2.0,74,0.00,,,0.00,Wunderground v.1.15,2013-02-13 05:40:00,
2013-02-13 00:45:00,30.8,23.5,29.99,SE,135,2.0,8.0,74,0.00,,,0.00,Wunderground v.1.15,2013-02-13 05:45:00,
2013-02-13 00:50:00,30.8,23.5,29.99,SW,228,1.0,8.0,74,0.00,,,0.00,Wunderground v.1.15,2013-02-13 05:50:00,
2013-02-13 00:55:00,30.7,23.4,29.99,WSW,245,0.0,8.0,74,0.00,,,0.00,Wunderground v.1.15,2013-02-13 05:55:00,
2013-02-13 01:00:00,30.7,23.4,29.99,SW,236,1.0,1.0,74,0.00,,,0.00,Wunderground v.1.15,2013-02-13 06:00:00,
2013-02-13 01:05:00,30.7,23.4,29.99,South,191,2.0,2.0,74,0.00,,,0.00,Wunderground v.1.15,2013-02-13 06:05:00,
2013-02-13 01:10:00,30.7,23.4,29.99,SW,226,1.0,1.0,74,0.00,,,0.00,Wunderground v.1.15,2013-02-13 06:10:00,
2013-02-13 01:15:00,30.7,23.4,29.99,WSW,246,1.0,8.0,74,0.00,,,0.00,Wunderground v.1.15,2013-02-13 06:15:00,
2013-02-13 01:20:00,30.6,23.3,29.99,West,273,1.0,8.0,74,0.00,,,0.00,Wunderground v.1.15,2013-02-13 06:20:00,
2013-02-13 01:25:00,30.6,23.0,29.99,WNW,287,2.0,8.0,73,0.00,,,0.00,Wunderground v.1.15,2013-02-13 06:25:00,
2013-02-13 01:30:00,30.6,23.3,29.99,West,278,2.0,2.0,74,0.00,,,0.00,Wunderground v.1.15,2013-02-13 06:30:00,
2013-02-13 01:35:00,30.6,23.0,29.99,WNW,297,2.0,8.0,73,0.00,,,0.00,Wunderground v.1.15,2013-02-13 06:35:00,
2013-02-13 01:40:00,30.6,23.0,29.99,West,278,1.0,1.0,73,0.00,,,0.00,Wunderground v.1.15,2013-02-13 06:40:00,
2013-02-13 01:45:00,30.5,22.9,29.99,SSE,167,1.0,8.0,73,0.00,,,0.00,Wunderground v.1.15,2013-02-13 06:45:00,
2013-02-13 01:50:00,30.5,22.9,29.99,NE,56,0.0,8.0,73,0.00,,,0.00,Wunderground v.1.15,2013-02-13 06:50:00,
2013-02-13 01:55:00,30.5,22.9,29.99,NE,56,0.0,8.0,73,0.00,,,0.00,Wunderground v.1.15,2013-02-13 06:55:00,
2013-02-13 02:00:00,30.5,22.9,30.00,WSW,250,0.0,8.0,73,0.00,,,0.00,Wunderground v.1.15,2013-02-13 07:00:00,
2013-02-13 02:05:00,30.5,22.9,29.99,West,259,1.0,8.0,73,0.00,,,0.00,Wunderground v.1.15,2013-02-13 07:05:00,
2013-02-13 02:10:00,30.5,22.9,29.99,West,264,2.0,2.0,73,0.00,,,0.00,Wunderground v.1.15,2013-02-13 07:10:00,
2013-02-13 02:15:00,30.4,22.8,29.99,SSW,197,1.0,8.0,73,0.00,,,0.00,Wunderground v.1.15,2013-02-13 07:15:00,
2013-02-13 02:20:00,30.4,22.8,29.99,SW,218,0.0,8.0,73,0.00,,,0.00,Wunderground v.1.15,2013-02-13 07:20:00,
2013-02-13 02:25:00,30.4,22.8,29.99,SW,218,0.0,8.0,73,0.00,,,0.00,Wunderground v.1.15,2013-02-13 07:25:00,
2013-02-13 02:30:00,30.2,22.9,29.99,SW,218,0.0,8.0,74,0.00,,,0.00,Wunderground v.1.15,2013-02-13 07:30:00,
2013-02-13 02:35:00,30.2,22.6,29.98,SSE,159,0.0,8.0,73,0.00,,,0.00,Wunderground v.1.15,2013-02-13 07:35:00,
2013-02-13 02:40:00,30.2,22.6,29.98,SSE,158,1.0,1.0,73,0.00,,,0.00,Wunderground v.1.15,2013-02-13 07:40:00,
2013-02-13 02:45:00,30.2,22.6,29.98,SSE,158,0.0,8.0,73,0.00,,,0.00,Wunderground v.1.15,2013-02-13 07:45:00,
2013-02-13 02:50:00,30.1,22.8,29.98,SSE,166,0.0,8.0,74,0.00,,,0.00,Wunderground v.1.15,2013-02-13 07:50:00,
2013-02-13 02:55:00,30.1,22.5,29.98,SSW,204,0.0,8.0,73,0.00,,,0.00,Wunderground v.1.15,2013-02-13 07:55:00,
2013-02-13 03:00:00,30.1,22.5,29.98,SW,219,1.0,8.0,73,0.00,,,0.00,Wunderground v.1.15,2013-02-13 08:00:00,
2013-02-13 03:05:00,30.1,22.5,29.98,SW,219,2.0,8.0,73,0.00,,,0.00,Wunderground v.1.15,2013-02-13 08:05:00,
2013-02-13 03:10:00,30.1,22.5,29.97,SSW,211,2.0,8.0,73,0.00,,,0.00,Wunderground v.1.15,2013-02-13 08:10:00,
2013-02-13 03:15:00,30.1,22.5,29.98,SW,219,2.0,8.0,73,0.00,,,0.00,Wunderground v.1.15,2013-02-13 08:15:00,
2013-02-13 03:20:00,30.1,22.5,29.98,SSW,203,2.0,8.0,73,0.00,,,0.00,Wunderground v.1.15,2013-02-13 08:20:00,